RASAT

Last updated on Fri Oct 04 2024 00:02:25 GMT+0000 (Coordinated Universal Time)

1 37791U 11044D 24277.52980418 .00003649 00000+0 66133-3 0 9999 2 37791 98.0770 7.3381 0021115 5.0220 51.2791 14.66749608702006
UTC large
Height (km)
Speed (km/s)
/
Latitude / Longitude
Inclination (degrees)
Orbital Period (minutes)
Azimuth
Elevation
Range (km)
Doppler Factor

Next 0 passes for location: London (51.5072 / 0.1276)

Sorry there are no passes over London.